DK4MDA-13 Weather Reports


Display with metric or nautical units.
time (UTC)temp
F
wind
direction
speed
MPH
gust
MPH
rain 1hr
in
rain 24hr
in
rain mn
in
humidity
%
barometer
mb
20260902112849 72 213 0.0 3.0 0.00 0.00 0.00 58 1019.4
20260902112349 72 240 1.0 2.0 0.00 0.00 0.00 57 1019.4
20260902111849 72 180 1.0 7.0 0.00 0.00 0.00 57 1019.5
20260902111351 73 185 1.0 6.0 0.00 0.00 0.00 56 1019.6
20260902110849 72 10 0.0 2.0 0.00 0.00 0.00 58 1019.7
20260902110349 71 160 1.0 2.0 0.00 0.00 0.00 59 1019.8
20260902105849 70 166 2.0 6.0 0.00 0.00 0.00 60 1019.7
20260902105349 70 228 1.0 5.0 0.00 0.00 0.00 59 1019.8
20260902104849 71 272 1.0 4.0 0.00 0.00 0.00 59 1019.8
20260902103849 71 195 1.0 5.0 0.00 0.00 0.00 59 1019.9
20260902103349 70 188 1.0 2.0 0.00 0.00 0.00 60 1019.8
20260902102849 70 297 1.0 4.0 0.00 0.00 0.00 59 1020.0
20260902102348 70 281 1.0 4.0 0.00 0.00 0.00 59 1020.1
20260902101848 70 113 1.0 2.0 0.00 0.00 0.00 60 1020.0
20260902101348 70 273 2.0 4.0 0.00 0.00 0.00 61 1020.1
20260902100848 70 274 1.0 4.0 0.00 0.00 0.00 61 1020.1
20260902100348 70 254 1.0 3.0 0.00 0.00 0.00 61 1020.2
20260902095848 70 321 1.0 3.0 0.00 0.00 0.00 60 1020.1
20260902095348 70 322 1.0 3.0 0.00 0.00 0.00 61 1020.0
20260902094848 70 242 1.0 6.0 0.00 0.00 0.00 60 1020.1
20260902094348 69 176 1.0 3.0 0.00 0.00 0.00 61 1020.1
20260902093848 69 227 2.0 4.0 0.00 0.00 0.00 62 1020.1
20260902093348 69 301 2.0 6.0 0.00 0.00 0.00 60 1020.3
20260902092848 69 247 1.0 8.0 0.00 0.00 0.00 62 1020.2
20260902092348 69 195 1.0 3.0 0.00 0.00 0.00 63 1020.2
20260902091848 68 245 1.0 4.0 0.00 0.00 0.00 63 1020.2
20260902091348 68 248 1.0 4.0 0.00 0.00 0.00 63 1020.3
20260902090848 68 226 1.0 6.0 0.00 0.00 0.00 66 1020.3
20260902090348 68 280 1.0 6.0 0.00 0.00 0.00 66 1020.4
20260902085848 68 173 1.0 4.0 0.00 0.00 0.00 66 1020.4
20260902085348 68 251 2.0 4.0 0.00 0.00 0.00 67 1020.4
20260902084848 68 249 2.0 6.0 0.00 0.00 0.00 67 1020.6
20260902084348 68 258 2.0 7.0 0.00 0.00 0.00 69 1020.5
20260902083848 67 197 1.0 7.0 0.00 0.00 0.00 70 1020.4
20260902083348 67 191 1.0 6.0 0.00 0.00 0.00 72 1020.4
20260902082848 66 173 1.0 7.0 0.00 0.00 0.00 75 1020.3
20260902082348 65 188 1.0 3.0 0.00 0.00 0.00 77 1020.3
20260902081848 65 221 2.0 5.0 0.00 0.00 0.00 77 1020.5
20260902081348 64 210 1.0 5.0 0.00 0.00 0.00 78 1020.4
20260902080848 64 186 1.0 5.0 0.00 0.00 0.00 79 1020.3
20260902080348 64 177 2.0 7.0 0.00 0.00 0.00 80 1020.3
20260902075848 64 232 1.0 7.0 0.00 0.00 0.00 79 1020.3
20260902075348 63 247 1.0 4.0 0.00 0.00 0.00 81 1020.3
20260902074848 63 195 0.0 2.0 0.00 0.00 0.00 82 1020.2
20260902074348 62 186 0.0 3.0 0.00 0.00 0.00 84 1020.0
20260902073848 62 187 0.0 3.0 0.00 0.00 0.00 85 1020.2
20260902073348 61 232 0.0 2.0 0.00 0.00 0.00 86 1020.3
20260902072848 60 181 0.0 4.0 0.00 0.00 0.00 86 1020.3
20260902072348 60 195 0.0 1.0 0.00 0.00 0.00 87 1020.2
20260902071848 60 202 1.0 3.0 0.00 0.00 0.00 87 1020.2
20260902071348 59 259 1.0 3.0 0.00 0.00 0.00 88 1020.3
20260902070848 59 258 1.0 4.0 0.00 0.00 0.00 88 1020.2
20260902070348 59 212 1.0 4.0 0.00 0.00 0.00 88 1020.4
20260902065848 59 231 1.0 6.0 0.00 0.00 0.00 88 1020.3
20260902065348 58 258 1.0 5.0 0.00 0.00 0.00 89 1020.3
20260902064848 58 187 1.0 3.0 0.00 0.00 0.00 89 1020.4
20260902064348 58 195 1.0 3.0 0.00 0.00 0.00 90 1020.4
20260902063848 58 172 1.0 4.0 0.00 0.00 0.00 91 1020.3
20260902063348 58 163 0.0 2.0 0.00 0.00 0.00 92 1020.3
20260902062848 57 190 0.0 2.0 0.00 0.00 0.00 92 1020.3
20260902062348 57 180 0.0 1.0 0.00 0.00 0.00 93 1020.2
20260902061848 57 170 1.0 5.0 0.00 0.00 0.00 93 1020.2
20260902061348 57 195 1.0 3.0 0.00 0.00 0.00 94 1020.3
20260902060848 56 239 0.0 2.0 0.00 0.00 0.00 95 1020.3
20260902060348 56 188 0.0 2.0 0.00 0.00 0.00 95 1020.2
20260902055848 56 249 0.0 3.0 0.00 0.00 0.00 96 1020.4
20260902055348 55 196 0.0 1.0 0.00 0.00 0.00 97 1020.4
20260902054848 54 218 0.0 1.0 0.00 0.00 0.00 97 1020.3
20260902054348 54 192 0.0 1.0 0.00 0.00 0.00 96 1020.4
20260902053848 54 222 0.0 1.0 0.00 0.00 0.00 96 1020.4
20260902053348 53 224 0.0 0.0 0.00 0.00 0.00 96 1020.4
20260902052848 53 26 0.0 0.0 0.00 0.00 0.00 95 1020.3
20260902052348 53 226 0.0 0.0 0.00 0.00 0.00 96 1020.3
20260902051848 53 224 0.0 0.0 0.00 0.00 0.00 96 1020.4
20260902051348 53 224 0.0 0.0 0.00 0.00 0.00 96 1020.5
20260902050848 53 224 0.0 0.0 0.00 0.00 0.00 95 1020.5
20260902050348 53 224 0.0 0.0 0.00 0.00 0.00 95 1020.4
20260902045848 53 224 0.0 0.0 0.00 0.00 0.00 95 1020.3
20260902045348 53 224 0.0 0.0 0.00 0.00 0.00 95 1020.3
20260902044848 53 224 0.0 0.0 0.00 0.00 0.00 95 1020.2
20260902044348 53 225 0.0 0.0 0.00 0.00 0.00 94 1020.2
20260902043848 53 223 0.0 0.0 0.00 0.00 0.00 94 1020.1
20260902043348 53 224 0.0 0.0 0.00 0.00 0.00 94 1020.1
20260902042848 54 226 0.0 0.0 0.00 0.00 0.00 94 1020.1
20260902042348 54 224 0.0 0.0 0.00 0.00 0.00 95 1020.1
20260902041848 54 224 0.0 1.0 0.00 0.00 0.00 95 1020.2
20260902041348 54 226 0.0 1.0 0.00 0.00 0.00 95 1020.2
20260902040848 54 224 0.0 0.0 0.00 0.00 0.00 95 1020.5
20260902040348 54 224 1.0 2.0 0.00 0.00 0.00 95 1020.4
20260902035848 54 26 1.0 4.0 0.00 0.00 0.00 95 1020.4
20260902035348 54 214 1.0 4.0 0.00 0.00 0.00 95 1020.6
20260902034848 54 227 0.0 3.0 0.00 0.00 0.00 95 1020.6
20260902034348 54 26 0.0 3.0 0.00 0.00 0.00 95 1020.5
20260902033848 54 263 0.0 1.0 0.00 0.00 0.00 95 1020.4
20260902033348 54 26 0.0 2.0 0.00 0.00 0.00 95 1020.5
20260902032848 54 272 0.0 2.0 0.00 0.00 0.00 95 1020.5
20260902032348 54 289 0.0 1.0 0.00 0.00 0.00 95 1020.5
20260902031848 54 276 0.0 1.0 0.00 0.00 0.00 95 1020.5
20260902031348 54 278 0.0 1.0 0.00 0.00 0.00 95 1020.5
20260902030848 54 243 0.0 2.0 0.00 0.00 0.00 95 1020.5
20260902030348 54 227 1.0 2.0 0.00 0.00 0.00 95 1020.4
20260902025848 54 210 1.0 4.0 0.00 0.00 0.00 94 1020.5
20260902025348 54 241 1.0 4.0 0.00 0.00 0.00 94 1020.3
20260902024848 54 212 1.0 3.0 0.00 0.00 0.00 94 1020.2
20260902024348 54 26 2.0 4.0 0.00 0.00 0.00 94 1020.0
20260902023848 54 230 1.0 4.0 0.00 0.00 0.00 94 1020.1
20260902023348 54 202 1.0 4.0 0.00 0.00 0.00 94 1020.0
20260902022848 54 240 0.0 3.0 0.00 0.00 0.00 94 1020.1
20260902022348 54 207 0.0 0.0 0.00 0.00 0.00 93 1020.0
20260902021848 54 222 0.0 0.0 0.00 0.00 0.00 93 1019.9
20260902021348 54 26 0.0 0.0 0.00 0.00 0.00 93 1019.9
20260902020849 54 275 0.0 0.0 0.00 0.00 0.00 93 1019.9
20260902020348 54 26 0.0 0.0 0.00 0.00 0.00 93 1019.9
20260902015849 54 276 0.0 0.0 0.00 0.00 0.00 92 1019.9
20260902015348 55 274 0.0 0.0 0.00 0.00 0.00 91 1020.0
20260902014849 55 26 0.0 0.0 0.00 0.00 0.00 91 1020.0
20260902014348 55 275 0.0 0.0 0.00 0.00 0.00 92 1020.0
20260902013849 55 275 0.0 0.0 0.00 0.00 0.00 93 1020.0
20260902013349 56 275 0.0 0.0 0.00 0.00 0.00 92 1020.0
20260902012849 56 274 0.0 0.0 0.00 0.00 0.00 93 1020.1
20260902012349 56 276 0.0 0.0 0.00 0.00 0.00 93 1020.1
20260902011849 56 276 0.0 0.0 0.00 0.00 0.00 92 1020.1
20260902011349 56 276 0.0 0.0 0.00 0.00 0.00 92 1020.1
20260902010849 56 275 0.0 0.0 0.00 0.00 0.00 92 1020.2
20260902010349 56 274 0.0 0.0 0.00 0.00 0.00 92 1020.3
20260902005849 56 26 0.0 0.0 0.00 0.00 0.00 92 1020.3
20260902005349 56 276 0.0 0.0 0.00 0.00 0.00 91 1020.2
20260902004849 56 275 0.0 0.0 0.00 0.00 0.00 91 1020.2
20260902004349 56 275 0.0 0.0 0.00 0.00 0.00 91 1020.2
20260902003849 57 275 0.0 0.0 0.00 0.00 0.00 91 1020.1
20260902003349 57 26 0.0 0.0 0.00 0.00 0.00 91 1020.3
20260902002849 57 275 0.0 0.0 0.00 0.00 0.00 91 1020.2
20260902002349 57 275 0.0 0.0 0.00 0.00 0.00 91 1020.2
20260902001849 57 276 0.0 0.0 0.00 0.00 0.00 91 1020.2
20260902001349 57 275 0.0 1.0 0.00 0.00 0.00 91 1020.3
20260902000849 57 275 0.0 2.0 0.00 0.00 0.00 91 1020.2
20260902000349 57 275 0.0 1.0 0.00 0.00 0.00 91 1020.1
20260901235849 57 275 0.0 1.0 0.00 0.00 0.00 91 1020.1
20260901235349 57 275 0.0 2.0 0.00 0.00 0.00 91 1020.1
20260901234849 58 275 0.0 2.0 0.00 0.00 0.00 91 1020.1
20260901234349 58 244 0.0 2.0 0.00 0.00 0.00 90 1020.1
20260901233849 58 208 0.0 1.0 0.00 0.00 0.00 90 1020.1
20260901233349 58 204 0.0 1.0 0.00 0.00 0.00 90 1020.1
20260901232849 58 230 0.0 1.0 0.00 0.00 0.00 90 1020.0
20260901232349 58 293 0.0 1.0 0.00 0.00 0.00 90 1020.0
20260901231849 58 291 0.0 2.0 0.00 0.00 0.00 89 1020.0
20260901231349 58 228 0.0 2.0 0.00 0.00 0.00 89 1020.0
20260901230849 58 208 0.0 2.0 0.00 0.00 0.00 89 1019.9
20260901230349 59 277 0.0 2.0 0.00 0.00 0.00 89 1019.9
20260901225849 59 185 0.0 1.0 0.00 0.00 0.00 88 1019.9
20260901225349 59 246 0.0 1.0 0.00 0.00 0.00 88 1019.9
20260901224849 59 260 0.0 2.0 0.00 0.00 0.00 88 1019.9
20260901224349 59 206 0.0 1.0 0.00 0.00 0.00 88 1019.9
20260901223849 59 284 0.0 1.0 0.00 0.00 0.00 88 1020.0
20260901223349 59 284 0.0 1.0 0.00 0.00 0.00 88 1020.0
20260901222849 59 285 0.0 2.0 0.00 0.00 0.00 88 1020.0
20260901222349 60 301 0.0 1.0 0.00 0.00 0.00 87 1020.1
20260901221849 60 291 0.0 1.0 0.00 0.00 0.00 87 1020.0
20260901221349 60 289 0.0 2.0 0.00 0.00 0.00 87 1020.0
20260901220849 60 305 0.0 3.0 0.00 0.00 0.00 87 1020.0
20260901220349 60 183 0.0 1.0 0.00 0.00 0.00 86 1020.0
20260901215849 60 293 0.0 2.0 0.00 0.00 0.00 86 1020.0
20260901215349 60 187 0.0 3.0 0.00 0.00 0.00 86 1019.8
20260901214849 60 246 0.0 2.0 0.00 0.00 0.00 86 1019.8
20260901214349 60 287 0.0 3.0 0.00 0.00 0.00 86 1019.8
20260901213849 61 208 0.0 2.0 0.00 0.00 0.00 85 1019.8
20260901213349 61 268 0.0 2.0 0.00 0.00 0.00 85 1019.9
20260901212849 61 26 1.0 4.0 0.00 0.00 0.00 84 1019.8
20260901212349 61 223 0.0 4.0 0.00 0.00 0.00 84 1019.8
20260901211849 61 276 0.0 2.0 0.00 0.00 0.00 84 1019.8
20260901211349 61 226 0.0 1.0 0.00 0.00 0.00 83 1019.9
20260901210849 62 279 0.0 1.0 0.00 0.00 0.00 83 1019.8
20260901210349 62 291 0.0 1.0 0.00 0.00 0.00 82 1019.9
20260901205849 62 318 0.0 1.0 0.00 0.00 0.00 81 1019.8
20260901205349 62 318 0.0 2.0 0.00 0.00 0.00 81 1019.8
20260901204849 62 268 0.0 0.0 0.00 0.00 0.00 80 1019.7
20260901204349 63 268 0.0 0.0 0.00 0.00 0.00 80 1019.8
20260901203849 63 268 0.0 1.0 0.00 0.00 0.00 80 1019.7
20260901203349 63 185 0.0 2.0 0.00 0.00 0.00 79 1019.7
20260901202849 63 300 0.0 3.0 0.00 0.00 0.00 79 1019.7
20260901202349 63 247 1.0 3.0 0.00 0.00 0.00 78 1019.6
20260901201849 64 267 1.0 4.0 0.00 0.00 0.00 78 1019.7
20260901201349 64 277 1.0 2.0 0.00 0.00 0.00 78 1019.7
20260901200849 64 283 1.0 4.0 0.00 0.00 0.00 78 1019.8
20260901200350 64 314 2.0 6.0 0.00 0.00 0.00 78 1019.6
20260901195850 64 264 2.0 6.0 0.00 0.00 0.00 78 1019.7
20260901195350 64 266 1.0 6.0 0.00 0.00 0.00 78 1019.6
20260901194850 64 261 1.0 3.0 0.00 0.00 0.00 77 1019.6
20260901194350 64 227 1.0 6.0 0.00 0.00 0.00 77 1019.6
20260901193850 64 266 1.0 6.0 0.00 0.00 0.00 77 1019.6
20260901193350 64 298 0.0 4.0 0.00 0.00 0.00 77 1019.6
20260901192350 64 267 0.0 2.0 0.00 0.00 0.00 77 1019.6
20260901191850 65 233 0.0 1.0 0.00 0.00 0.00 76 1019.6
20260901191350 65 208 0.0 1.0 0.00 0.00 0.00 76 1019.6
20260901190850 65 203 0.0 5.0 0.00 0.00 0.00 76 1019.5
20260901190350 65 233 0.0 2.0 0.00 0.00 0.00 76 1019.4
20260901185850 65 206 1.0 3.0 0.00 0.00 0.00 75 1019.4
20260901185350 65 239 1.0 4.0 0.00 0.00 0.00 75 1019.2
20260901184850 65 231 0.0 4.0 0.00 0.00 0.00 75 1019.3
20260901184350 65 232 0.0 2.0 0.00 0.00 0.00 75 1019.2
20260901183850 65 256 1.0 3.0 0.00 0.00 0.00 75 1019.0
20260901183350 65 248 1.0 5.0 0.00 0.00 0.00 75 1019.0
20260901182850 65 242 1.0 8.0 0.00 0.00 0.00 75 1019.0
20260901182350 66 296 1.0 3.0 0.00 0.00 0.00 74 1019.0
20260901181850 66 249 1.0 4.0 0.00 0.00 0.00 74 1019.0
20260901181350 66 244 1.0 4.0 0.00 0.00 0.00 73 1018.9
20260901180850 66 219 1.0 3.0 0.00 0.00 0.00 73 1018.8
20260901180350 66 212 1.0 4.0 0.00 0.00 0.00 72 1018.9
20260901175850 66 209 1.0 6.0 0.00 0.00 0.00 72 1018.8
20260901175350 67 262 1.0 4.0 0.00 0.00 0.00 71 1018.9
20260901174850 67 258 1.0 6.0 0.00 0.00 0.00 71 1018.9
20260901174350 67 271 2.0 6.0 0.00 0.00 0.00 71 1018.8
20260901173850 67 237 2.0 4.0 0.00 0.00 0.00 72 1018.8
20260901173350 67 262 2.0 4.0 0.00 0.00 0.00 72 1018.8
20260901172850 67 266 2.0 7.0 0.00 0.00 0.00 72 1018.7
20260901172350 67 298 2.0 7.0 0.00 0.00 0.00 72 1018.7
20260901171850 67 245 1.0 4.0 0.00 0.00 0.00 72 1018.7
20260901171350 67 280 1.0 5.0 0.00 0.00 0.00 72 1018.7
20260901170850 68 188 1.0 4.0 0.00 0.00 0.00 72 1018.7
20260901170350 68 252 2.0 4.0 0.00 0.00 0.00 72 1018.6
20260901165850 68 218 2.0 9.0 0.00 0.00 0.00 72 1018.7
20260901165350 68 307 1.0 8.0 0.00 0.00 0.00 71 1018.7
20260901164850 68 266 0.0 2.0 0.00 0.00 0.00 72 1018.6
20260901164350 68 266 1.0 3.0 0.00 0.00 0.00 72 1018.5
20260901163850 68 320 2.0 5.0 0.00 0.00 0.00 72 1018.4
20260901163350 68 285 3.0 6.0 0.00 0.00 0.00 72 1018.4
20260901162850 68 335 4.0 8.0 0.00 0.00 0.00 72 1018.4
20260901162350 69 328 4.0 7.0 0.00 0.00 0.00 70 1018.3
20260901161850 69 335 5.0 6.0 0.00 0.00 0.00 70 1018.2
20260901161350 69 348 7.0 13.0 0.00 0.00 0.00 70 1018.3
20260901160850 69 344 7.0 11.0 0.00 0.00 0.00 68 1018.3
20260901160350 70 26 8.0 14.0 0.00 0.00 0.00 67 1018.4
20260901155850 71 335 7.0 14.0 0.00 0.00 0.00 65 1018.3
20260901155350 71 343 6.0 10.0 0.00 0.00 0.00 62 1018.3
20260901154850 72 319 6.0 10.0 0.00 0.00 0.00 60 1018.2
20260901154350 72 318 5.0 10.0 0.00 0.00 0.00 59 1018.2
20260901153350 72 324 3.0 7.0 0.00 0.00 0.00 60 1018.0
20260901152850 72 273 3.0 9.0 0.00 0.00 0.00 60 1018.2
20260901152350 73 295 3.0 8.0 0.00 0.00 0.00 58 1018.2
20260901151850 73 282 3.0 8.0 0.00 0.32 0.00 57 1018.2
20260901151350 73 276 3.0 8.0 0.00 0.32 0.00 58 1018.1
20260901150850 73 218 3.0 11.0 0.00 0.32 0.00 57 1018.1
20260901150350 73 220 3.0 8.0 0.00 0.32 0.00 56 1017.9
20260901145850 74 278 3.0 5.0 0.00 0.32 0.00 55 1017.8
20260901145350 74 247 3.0 7.0 0.00 0.32 0.00 54 1018.0
20260901144850 75 307 3.0 12.0 0.00 0.32 0.00 54 1017.9
20260901144350 75 297 3.0 7.0 0.00 0.32 0.00 55 1017.9
20260901143850 75 283 4.0 7.0 0.00 0.32 0.00 54 1017.9
20260901143350 75 271 5.0 8.0 0.00 0.32 0.00 54 1017.9
20260901142850 75 308 4.0 12.0 0.00 0.32 0.00 54 1017.9
20260901142350 75 323 3.0 9.0 0.00 0.32 0.00 55 1017.8
20260901141850 75 297 4.0 12.0 0.00 0.32 0.00 55 1017.9
20260901141350 76 79 3.0 10.0 0.00 0.32 0.00 53 1017.9
20260901140850 76 280 3.0 8.0 0.00 0.32 0.00 54 1018.0
20260901135850 76 290 3.0 6.0 0.00 0.32 0.00 55 1017.9
20260901135350 75 251 4.0 8.0 0.00 0.32 0.00 54 1017.9
20260901134850 75 299 3.0 8.0 0.00 0.32 0.00 55 1017.9
20260901134350 75 315 4.0 8.0 0.00 0.32 0.00 56 1018.0
20260901133852 75 233 4.0 8.0 0.00 0.32 0.00 55 1018.0
20260901133350 75 272 4.0 9.0 0.00 0.32 0.00 55 1018.1
20260901132850 74 268 3.0 7.0 0.00 0.32 0.00 56 1018.0
20260901132350 74 287 4.0 11.0 0.00 0.32 0.00 56 1018.1
20260901131850 74 229 4.0 9.0 0.00 0.32 0.00 56 1018.0
20260901131350 74 253 3.0 9.0 0.00 0.32 0.00 58 1018.1
20260901130850 74 270 4.0 8.0 0.00 0.32 0.00 59 1018.1
20260901130350 73 306 5.0 11.0 0.00 0.32 0.00 58 1018.1
20260901125850 73 325 5.0 11.0 0.00 0.32 0.00 58 1018.1
20260901125350 73 326 4.0 12.0 0.00 0.32 0.00 58 1018.2
20260901124850 73 274 4.0 11.0 0.00 0.32 0.00 57 1018.2
20260901124350 73 286 4.0 10.0 0.00 0.32 0.00 58 1018.2
20260901123850 73 299 4.0 8.0 0.00 0.32 0.00 58 1018.3
20260901123351 73 284 4.0 13.0 0.00 0.32 0.00 57 1018.2
20260901122851 73 286 5.0 9.0 0.00 0.32 0.00 60 1018.3
20260901122350 73 271 6.0 11.0 0.00 0.32 0.00 59 1018.2
20260901121850 73 281 5.0 13.0 0.00 0.32 0.00 58 1018.1
20260901121352 73 318 4.0 10.0 0.00 0.32 0.00 58 1018.1
20260901120351 73 269 5.0 9.0 0.00 0.32 0.00 60 1018.2
20260901115850 72 26 5.0 12.0 0.00 0.32 0.00 61 1018.2
20260901115351 73 303 4.0 11.0 0.00 0.32 0.00 62 1018.2
20260901114850 72 297 5.0 13.0 0.00 0.32 0.00 61 1018.2
20260901114350 72 295 4.0 14.0 0.00 0.32 0.00 62 1018.3
20260901113851 72 311 4.0 7.0 0.00 0.32 0.00 64 1018.4
20260901113350 72 26 5.0 13.0 0.00 0.32 0.00 65 1018.3